When you browse on this site, cookies collect data to enhance your experience and personalize the content and advertising you see.
Visit our Privacy Policy to learn more. By continuing to use the site, you agree to this use of cookies and data.
  • In Deutschland
  • Länderverzeichnis
  • Für 7 Tage
  • Wassertemperatur
  • Satellitenkarten
  • Wetterkarte
  • Widgets
  • user-avatar
    Anmelden

    Stündliche Wetter Lipinki

    Heute, 27 Mai, Montag

    Zeit Temperatur Niederschläge Wind Luftdruck Luftfeuchtigkeit
    00:00 +13°C° 0 mm 3 m/S 749 mmHg 82%
    01:00 +13°C° 0 mm 3 m/S 749 mmHg 84%
    02:00 +13°C° 0 mm 3 m/S 749 mmHg 85%
    03:00 +13°C° 0 mm 3 m/S 749 mmHg 87%
    04:00 +13°C° 0 mm 3 m/S 749 mmHg 89%
    05:00 +15°C° 0 mm 4 m/S 749 mmHg 84%
    06:00 +17°C° 0 mm 4 m/S 749 mmHg 78%
    07:00 +19°C° 0 mm 4 m/S 748 mmHg 73%
    08:00 +21°C° 0.1 mm 4 m/S 748 mmHg 66%
    09:00 +22°C° 0.1 mm 5 m/S 748 mmHg 60%
    10:00 +25°C° 0.1 mm 5 m/S 748 mmHg 54%
    11:00 +25°C° 0 mm 5 m/S 748 mmHg 53%
    12:00 +26°C° 0 mm 5 m/S 748 mmHg 51%
    13:00 +26°C° 0 mm 5 m/S 747 mmHg 50%
    14:00 +26°C° 0.1 mm 5 m/S 747 mmHg 52%
    15:00 +26°C° 0.1 mm 5 m/S 747 mmHg 53%
    16:00 +26°C° 0.1 mm 4 m/S 747 mmHg 55%
    17:00 +23°C° 0.2 mm 4 m/S 747 mmHg 62%
    18:00 +22°C° 0.2 mm 3 m/S 747 mmHg 69%
    19:00 +21°C° 0.2 mm 3 m/S 747 mmHg 76%
    20:00 +20°C° 0 mm 3 m/S 747 mmHg 78%
    21:00 +19°C° 0 mm 2 m/S 747 mmHg 80%
    22:00 +18°C° 0 mm 2 m/S 747 mmHg 83%
    23:00 +18°C° 0.3 mm 2 m/S 746 mmHg 85%

    Morgen, 28 Mai, Dienstag

    Zeit Temperatur Niederschläge Wind Luftdruck Luftfeuchtigkeit
    00:00 +18°C° 0.3 mm 2 m/S 746 mmHg 88%
    01:00 +17°C° 0.3 mm 2 m/S 746 mmHg 91%
    02:00 +17°C° 0.5 mm 2 m/S 745 mmHg 92%
    03:00 +17°C° 0.5 mm 3 m/S 745 mmHg 93%
    04:00 +17°C° 0.5 mm 3 m/S 745 mmHg 95%
    05:00 +18°C° 0.5 mm 3 m/S 744 mmHg 92%
    06:00 +18°C° 0.5 mm 3 m/S 744 mmHg 90%
    07:00 +19°C° 0.5 mm 2 m/S 744 mmHg 87%
    08:00 +20°C° 0.3 mm 3 m/S 744 mmHg 83%
    09:00 +21°C° 0.3 mm 3 m/S 743 mmHg 79%
    10:00 +22°C° 0.3 mm 4 m/S 743 mmHg 75%
    11:00 +23°C° 0.5 mm 4 m/S 743 mmHg 72%
    12:00 +23°C° 0.5 mm 4 m/S 743 mmHg 69%
    13:00 +25°C° 0.5 mm 5 m/S 743 mmHg 66%
    14:00 +23°C° 1.5 mm 4 m/S 743 mmHg 71%
    15:00 +22°C° 1.5 mm 3 m/S 743 mmHg 76%
    16:00 +21°C° 1.5 mm 2 m/S 743 mmHg 81%
    17:00 +20°C° 1 mm 2 m/S 744 mmHg 82%
    18:00 +20°C° 1 mm 2 m/S 744 mmHg 84%
    19:00 +20°C° 1 mm 1 m/S 744 mmHg 85%
    20:00 +18°C° 0.7 mm 2 m/S 744 mmHg 88%
    21:00 +17°C° 0.7 mm 3 m/S 745 mmHg 91%
    22:00 +15°C° 0.7 mm 5 m/S 745 mmHg 93%
    23:00 +14°C° 0.1 mm 5 m/S 746 mmHg 93%

    übermorgen, 29 Mai, Mittwoch

    Zeit Temperatur Niederschläge Wind Luftdruck Luftfeuchtigkeit
    00:00 +13°C° 0.1 mm 5 m/S 746 mmHg 93%
    01:00 +12°C° 0.1 mm 5 m/S 746 mmHg 92%
    02:00 +10°C° 0 mm 5 m/S 747 mmHg 91%
    03:00 +10°C° 0 mm 5 m/S 747 mmHg 90%
    04:00 +9°C° 0 mm 5 m/S 748 mmHg 89%
    05:00 +9°C° 0.1 mm 5 m/S 749 mmHg 87%
    06:00 +9°C° 0.1 mm 5 m/S 749 mmHg 86%
    07:00 +10°C° 0.1 mm 4 m/S 750 mmHg 85%
    08:00 +10°C° 0 mm 4 m/S 750 mmHg 83%
    09:00 +11°C° 0 mm 4 m/S 751 mmHg 80%
    10:00 +11°C° 0 mm 4 m/S 751 mmHg 78%
    11:00 +12°C° 0 mm 4 m/S 752 mmHg 75%
    12:00 +13°C° 0 mm 4 m/S 752 mmHg 71%
    13:00 +14°C° 0 mm 3 m/S 752 mmHg 68%
    14:00 +14°C° 0 mm 3 m/S 752 mmHg 67%
    15:00 +16°C° 0 mm 3 m/S 752 mmHg 67%
    16:00 +16°C° 0 mm 3 m/S 753 mmHg 67%
    17:00 +16°C° 0 mm 3 m/S 753 mmHg 68%
    18:00 +14°C° 0 mm 3 m/S 753 mmHg 70%
    19:00 +14°C° 0 mm 3 m/S 753 mmHg 72%
    20:00 +13°C° 0 mm 3 m/S 754 mmHg 72%
    21:00 +12°C° 0 mm 3 m/S 754 mmHg 73%
    22:00 +11°C° 0 mm 3 m/S 754 mmHg 74%
    23:00 +10°C° 0 mm 3 m/S 754 mmHg 75%

    30 Mai, Donnerstag

    Zeit Temperatur Niederschläge Wind Luftdruck Luftfeuchtigkeit
    00:00 +9°C° 0 mm 3 m/S 755 mmHg 77%
    01:00 +8°C° 0 mm 3 m/S 755 mmHg 78%
    02:00 +8°C° 0 mm 3 m/S 755 mmHg 78%
    03:00 +7°C° 0 mm 3 m/S 755 mmHg 78%
    04:00 +7°C° 0 mm 3 m/S 755 mmHg 78%
    05:00 +8°C° 0 mm 2 m/S 755 mmHg 74%
    06:00 +9°C° 0 mm 2 m/S 755 mmHg 71%
    07:00 +12°C° 0 mm 2 m/S 755 mmHg 67%
    08:00 +12°C° 0 mm 2 m/S 755 mmHg 69%
    09:00 +12°C° 0 mm 2 m/S 755 mmHg 70%
    10:00 +13°C° 0 mm 2 m/S 755 mmHg 72%
    11:00 +13°C° 0 mm 2 m/S 755 mmHg 70%
    12:00 +14°C° 0 mm 2 m/S 755 mmHg 68%
    13:00 +15°C° 0 mm 2 m/S 755 mmHg 66%
    14:00 +15°C° 0 mm 2 m/S 755 mmHg 62%
    15:00 +16°C° 0 mm 2 m/S 755 mmHg 59%
    16:00 +18°C° 0 mm 1 m/S 755 mmHg 56%
    17:00 +18°C° 0 mm 1 m/S 754 mmHg 59%
    18:00 +16°C° 0 mm 1 m/S 754 mmHg 63%
    19:00 +15°C° 0 mm 1 m/S 754 mmHg 67%
    20:00 +14°C° 0 mm 1 m/S 754 mmHg 68%
    21:00 +13°C° 0 mm 1 m/S 754 mmHg 70%
    22:00 +12°C° 0 mm 1 m/S 754 mmHg 72%
    23:00 +11°C° 0 mm 1 m/S 754 mmHg 73%

    31 Mai, Freitag

    Zeit Temperatur Niederschläge Wind Luftdruck Luftfeuchtigkeit
    00:00 +11°C° 0 mm 1 m/S 754 mmHg 74%
    01:00 +10°C° 0 mm 1 m/S 754 mmHg 76%
    02:00 +10°C° 0 mm 1 m/S 753 mmHg 77%
    03:00 +10°C° 0 mm 1 m/S 753 mmHg 79%
    04:00 +10°C° 0 mm 1 m/S 753 mmHg 81%
    05:00 +12°C° 0 mm 1 m/S 753 mmHg 77%
    06:00 +13°C° 0 mm 2 m/S 752 mmHg 73%
    07:00 +15°C° 0 mm 2 m/S 752 mmHg 70%
    08:00 +17°C° 0 mm 3 m/S 752 mmHg 65%
    09:00 +18°C° 0 mm 3 m/S 751 mmHg 59%
    10:00 +20°C° 0 mm 3 m/S 751 mmHg 54%
    11:00 +21°C° 0 mm 3 m/S 750 mmHg 52%
    12:00 +22°C° 0 mm 3 m/S 750 mmHg 49%
    13:00 +24°C° 0 mm 3 m/S 750 mmHg 47%
    14:00 +22°C° 0.6 mm 5 m/S 750 mmHg 56%
    15:00 +20°C° 0.6 mm 6 m/S 751 mmHg 65%
    16:00 +18°C° 0.6 mm 8 m/S 751 mmHg 75%
    17:00 +15°C° 0.1 mm 8 m/S 752 mmHg 77%
    18:00 +11°C° 0.1 mm 8 m/S 753 mmHg 80%
    19:00 +7°C° 0.1 mm 8 m/S 754 mmHg 82%
    20:00 +8°C° 0 mm 7 m/S 755 mmHg 79%
    21:00 +8°C° 0 mm 6 m/S 755 mmHg 77%
    22:00 +8°C° 0 mm 5 m/S 756 mmHg 74%
    23:00 +8°C° 0 mm 5 m/S 757 mmHg 73%

    1 Juni, Samstag

    Zeit Temperatur Niederschläge Wind Luftdruck Luftfeuchtigkeit
    00:00 +7°C° 0 mm 5 m/S 757 mmHg 72%
    01:00 +7°C° 0 mm 5 m/S 757 mmHg 72%
    02:00 +6°C° 0 mm 5 m/S 758 mmHg 72%
    03:00 +6°C° 0 mm 4 m/S 758 mmHg 72%
    04:00 +5°C° 0 mm 4 m/S 758 mmHg 72%
    05:00 +6°C° 0 mm 4 m/S 759 mmHg 69%
    06:00 +8°C° 0 mm 4 m/S 759 mmHg 66%
    07:00 +10°C° 0 mm 4 m/S 759 mmHg 62%
    08:00 +10°C° 0 mm 5 m/S 760 mmHg 57%
    09:00 +13°C° 0 mm 5 m/S 760 mmHg 52%
    10:00 +14°C° 0 mm 5 m/S 760 mmHg 46%
    11:00 +15°C° 0 mm 5 m/S 760 mmHg 46%
    12:00 +16°C° 0 mm 5 m/S 760 mmHg 46%
    13:00 +16°C° 0 mm 5 m/S 760 mmHg 45%
    14:00 +16°C° 0 mm 5 m/S 760 mmHg 47%
    15:00 +16°C° 0 mm 5 m/S 760 mmHg 49%
    16:00 +16°C° 0 mm 5 m/S 760 mmHg 50%
    17:00 +15°C° 0 mm 4 m/S 760 mmHg 54%
    18:00 +14°C° 0 mm 4 m/S 761 mmHg 58%
    19:00 +13°C° 0 mm 3 m/S 761 mmHg 62%
    20:00 +11°C° 0 mm 3 m/S 761 mmHg 66%
    21:00 +10°C° 0 mm 3 m/S 762 mmHg 69%
    22:00 +9°C° 0 mm 3 m/S 762 mmHg 72%
    23:00 +8°C° 0 mm 3 m/S 762 mmHg 73%
    Mehr zeigen